Time,TemperatureF,DewpointF,PressureIn,WindDirection,WindDirectionDegrees,WindSpeedMPH,WindSpeedGustMPH,Humidity,HourlyPrecipIn,Conditions,Clouds,dailyrainin,SoftwareType,DateUTC
2013-06-22 11:02:00,74.0,67.0,30.23,North,0,0.0,5.0,80,0.00,,,0.00,,2013-06-22 15:02:00,
2013-06-22 11:12:00,77.0,70.0,30.23,North,0,0.0,3.0,78,0.00,,,0.00,,2013-06-22 15:12:00,
2013-06-22 12:12:00,77.0,68.0,30.22,North,0,0.0,6.0,73,0.00,,,0.00,,2013-06-22 16:12:00,
2013-06-22 12:34:00,78.0,69.0,30.22,West,273,1.0,7.0,74,0.00,,,0.00,,2013-06-22 16:34:00,
2013-06-22 12:43:00,79.0,70.0,30.22,North,0,0.0,5.0,75,0.00,,,0.00,,2013-06-22 16:43:00,
2013-06-22 12:52:00,79.0,68.0,30.22,West,264,1.0,6.0,70,0.00,,,0.00,,2013-06-22 16:52:00,
2013-06-22 13:02:00,80.0,70.0,30.22,North,0,0.0,7.0,72,0.00,,,0.00,,2013-06-22 17:02:00,
2013-06-22 13:43:00,80.0,71.0,30.22,North,0,0.0,5.0,74,0.00,,,0.00,,2013-06-22 17:43:00,
2013-06-22 13:52:00,80.0,71.0,30.22,North,0,0.0,2.0,73,0.00,,,0.00,,2013-06-22 17:52:00,
2013-06-22 14:02:00,80.0,71.0,30.22,North,0,0.0,3.0,74,0.00,,,0.00,,2013-06-22 18:02:00,
2013-06-22 14:12:00,80.0,70.0,30.21,North,0,0.0,5.0,72,0.00,,,0.00,,2013-06-22 18:12:00,
2013-06-22 14:34:00,82.0,71.0,30.21,North,0,0.0,4.0,70,0.00,,,0.00,,2013-06-22 18:34:00,
2013-06-22 14:52:00,81.0,72.0,30.20,North,0,0.0,2.0,73,0.00,,,0.00,,2013-06-22 18:52:00,
2013-06-22 15:01:00,82.0,72.0,30.20,North,0,0.0,1.0,72,0.00,,,0.00,,2013-06-22 19:01:00,
2013-06-22 15:11:00,82.0,71.0,30.19,North,0,0.0,4.0,69,0.00,,,0.00,,2013-06-22 19:11:00,
2013-06-22 15:53:00,84.0,72.0,30.17,North,0,0.0,5.0,67,0.00,,,0.00,,2013-06-22 19:53:00,
2013-06-22 16:02:00,83.0,70.0,30.17,North,0,0.0,1.0,66,0.00,,,0.00,,2013-06-22 20:02:00,
2013-06-22 16:11:00,83.0,70.0,30.17,North,0,0.0,1.0,66,0.00,,,0.00,,2013-06-22 20:11:00,
2013-06-22 16:33:00,82.0,70.0,30.16,North,0,0.0,4.0,67,0.00,,,0.00,,2013-06-22 20:33:00,
2013-06-22 16:43:00,83.0,71.0,30.16,North,0,0.0,2.0,68,0.00,,,0.00,,2013-06-22 20:43:00,
2013-06-22 16:53:00,83.0,71.0,30.15,North,0,0.0,2.0,68,0.00,,,0.00,,2013-06-22 20:53:00,
2013-06-22 17:01:00,83.0,71.0,30.15,North,0,0.0,2.0,67,0.00,,,0.00,,2013-06-22 21:01:00,
2013-06-22 17:11:00,83.0,71.0,30.15,North,0,0.0,4.0,67,0.00,,,0.00,,2013-06-22 21:11:00,
2013-06-22 17:34:00,82.0,70.0,30.14,North,0,0.0,3.0,68,0.00,,,0.00,,2013-06-22 21:34:00,
2013-06-22 17:43:00,82.0,70.0,30.14,North,0,0.0,2.0,67,0.00,,,0.00,,2013-06-22 21:43:00,
2013-06-22 17:53:00,82.0,70.0,30.13,North,0,0.0,2.0,68,0.00,,,0.00,,2013-06-22 21:53:00,
2013-06-22 18:02:00,82.0,71.0,30.13,North,0,0.0,4.0,69,0.00,,,0.00,,2013-06-22 22:02:00,
2013-06-22 18:12:00,82.0,70.0,30.12,North,0,0.0,7.0,68,0.00,,,0.00,,2013-06-22 22:12:00,
2013-06-22 18:23:00,81.0,70.0,30.11,West,278,1.0,5.0,70,0.00,,,0.00,,2013-06-22 22:23:00,
2013-06-22 18:33:00,81.0,70.0,30.11,North,0,0.0,4.0,70,0.00,,,0.00,,2013-06-22 22:33:00,
2013-06-22 18:43:00,81.0,71.0,30.10,North,0,0.0,9.0,71,0.00,,,0.00,,2013-06-22 22:43:00,
2013-06-22 18:52:00,80.0,70.0,30.10,North,0,0.0,10.0,72,0.00,,,0.00,,2013-06-22 22:52:00,
2013-06-22 19:01:00,80.0,71.0,30.10,North,0,0.0,7.0,73,0.00,,,0.00,,2013-06-22 23:01:00,
2013-06-22 19:11:00,80.0,71.0,30.10,North,0,0.0,3.0,73,0.00,,,0.00,,2013-06-22 23:11:00,
2013-06-22 19:34:00,79.0,70.0,30.11,North,0,0.0,1.0,75,0.00,,,0.00,,2013-06-22 23:34:00,
2013-06-22 19:43:00,79.0,70.0,30.11,North,0,0.0,5.0,74,0.00,,,0.00,,2013-06-22 23:43:00,
2013-06-22 19:52:00,79.0,70.0,30.11,North,0,0.0,6.0,74,0.00,,,0.00,,2013-06-22 23:52:00,
2013-06-22 20:01:00,79.0,70.0,30.11,North,0,0.0,3.0,74,0.00,,,0.00,,2013-06-23 00:01:00,
2013-06-22 20:11:00,79.0,70.0,30.11,North,0,0.0,3.0,74,0.00,,,0.00,,2013-06-23 00:11:00,
2013-06-22 20:34:00,78.0,69.0,30.11,North,0,0.0,4.0,74,0.00,,,0.00,,2013-06-23 00:34:00,
2013-06-22 20:42:00,78.0,69.0,30.11,North,0,0.0,2.0,75,0.00,,,0.00,,2013-06-23 00:42:00,
2013-06-22 20:53:00,77.0,68.0,30.11,North,0,0.0,0.0,75,0.00,,,0.00,,2013-06-23 00:53:00,
2013-06-22 21:01:00,77.0,68.0,30.11,North,0,0.0,1.0,75,0.00,,,0.00,,2013-06-23 01:01:00,
2013-06-22 21:11:00,77.0,69.0,30.11,North,0,0.0,2.0,76,0.00,,,0.00,,2013-06-23 01:11:00,
2013-06-22 21:22:00,76.0,69.0,30.12,North,0,0.0,1.0,78,0.00,,,0.00,,2013-06-23 01:22:00,
2013-06-22 21:32:00,76.0,69.0,30.12,North,0,0.0,1.0,78,0.00,,,0.00,,2013-06-23 01:32:00,
2013-06-22 21:42:00,76.0,69.0,30.12,North,0,0.0,1.0,78,0.00,,,0.00,,2013-06-23 01:42:00,
2013-06-22 21:52:00,75.0,69.0,30.14,North,0,0.0,2.0,81,0.00,,,0.00,,2013-06-23 01:52:00,
2013-06-22 22:01:00,75.0,69.0,30.14,North,0,0.0,2.0,81,0.00,,,0.00,,2013-06-23 02:01:00,
2013-06-22 22:11:00,75.0,69.0,30.14,North,0,0.0,2.0,81,0.00,,,0.00,,2013-06-23 02:11:00,
2013-06-22 22:21:00,75.0,69.0,30.14,North,0,0.0,2.0,81,0.00,,,0.00,,2013-06-23 02:21:00,
2013-06-22 22:31:00,75.0,69.0,30.14,North,0,0.0,2.0,81,0.00,,,0.00,,2013-06-23 02:31:00,
2013-06-22 22:41:00,74.0,68.0,30.14,North,0,0.0,2.0,81,0.00,,,0.00,,2013-06-23 02:41:00,
2013-06-22 23:01:00,74.0,68.0,30.14,North,0,0.0,2.0,81,0.00,,,0.00,,2013-06-23 03:01:00,
2013-06-22 23:11:00,74.0,68.0,30.14,North,0,0.0,2.0,81,0.00,,,0.00,,2013-06-23 03:11:00,
2013-06-22 23:21:00,74.0,68.0,30.14,North,0,0.0,2.0,81,0.00,,,0.00,,2013-06-23 03:21:00,
2013-06-22 23:31:00,74.0,68.0,30.14,North,0,0.0,2.0,81,0.00,,,0.00,,2013-06-23 03:31:00,